Location: Newark
(47.3150°N, 5.1150°E)
Time: 17:15:27
(UTC+00:00)

Envisat - Pass Details

Date: 26 October 2019
Orbit: 764 x 766 km, 98.1° (Epoch: 14 November)

Event Time Altitude Azimuth Distance (km) Brightness Sun altitude
Rises 17:07:10 0° 151° (SSE) 3,221 6.0 -6.4°
Reaches altitude 10° 17:09:29 10° 146° (SSE) 2,299 5.3 -6.8°
Maximum altitude 17:14:25 54° 70° (ENE) 930 3.1 -7.6°
Drops below altitude 10° 17:19:22 10° 355° (N) 2,314 5.5 -8.5°
Sets 17:21:43 0° 351° (N) 3,244 6.3 -8.9°
